Regional Weather Roundup
Issued by NWS

Home | Current Version | Previous Version | Graphics & Text | Print | Product List | Glossary Off
Versions: 1 2 3 4 5 6 7 8 9 10 11 12 13 14 15 16 17 18 19 20 21 22 23 24 25 26 27 28 29 30 31 32 33 34 35 36 37 38 39 40 41 42 43 44 45 46 47 48 49 50

000
ASUS43 KMKX 131621
RWRWI

WISCONSIN REGIONAL WEATHER ROUNDUP
NATIONAL WEATHER SERVICE MILWAUKEE/SULLIVAN WI
1100 AM CDT SUN JUL 13 2014

NOTE: "FAIR" INDICATES FEW OR NO CLOUDS BELOW 12,000 FEET WITH NO
SIGNIFICANT WEATHER AND/OR OBSTRUCTIONS TO VISIBILITY.

WIZ001-002-006>008-014>016-023>028-131700-
NORTHWEST WISCONSIN

CITY           SKY/WX    TMP DP  RH WIND       PRES   REMARKS
SUPERIOR ARPT  SUNNY     68  51  53 W8        29.91F
ASHLAND        SUNNY     67  49  52 W8        29.91F
HAYWARD        SUNNY     66  47  50 W7        29.94F
SIREN          SUNNY     67  48  50 NW8       29.95F
RICE LAKE      SUNNY     66  48  51 W5        29.97S
LADYSMITH      SUNNY     67  48  51 W9        29.95F
EAU CLAIRE     SUNNY     70  49  47 NW8       29.95R
MENOMONIE      SUNNY     70  48  45 N7        29.96S
NEW RICHMOND   SUNNY     67  47  48 W3        29.97F
OSCEOLA        SUNNY     68  51  53 NW5       29.99S
$$

WIZ003>005-009-010-017-018-131700-
NORTH CENTRAL WISCONSIN

CITY           SKY/WX    TMP DP  RH WIND       PRES   REMARKS
WOODRUFF       SUNNY     67  48  50 NW10      29.91S
RHINELANDER    SUNNY     64  48  56 VRB7      29.92S
EAGLE RIVER    SUNNY     64  43  47 NW13      29.90S
LAND O LAKES   MOSUNNY   64  44  48 W13       29.91S
PHILLIPS       SUNNY     64  47  55 N8        29.92F
TOMAHAWK       SUNNY     64  47  53 NW12      29.92F
MEDFORD        SUNNY     65  47  51 NW12      29.93S
MERRILL        SUNNY     67  48  51 NW10      29.91S
$$

WIZ029-030-035-036-043>047-131700-
CENTRAL WISCONSIN

CITY           SKY/WX    TMP DP  RH WIND       PRES   REMARKS
WAUSAU         SUNNY     70  51  51 NW9       29.90S
MOSINEE        MOSUNNY   68  46  45 NW13      29.92S
MARSHFIELD     SUNNY     69  51  52 NW12      29.93S
STEVENS POINT  MOSUNNY   70  49  47 NW9       29.91S
WAUPACA        PTSUNNY   75  61  60 W10G18    29.90S
WAUTOMA        MOSUNNY   76  65  68 W16       29.91F
WISC RAPIDS    SUNNY     73  57  57 NW12      29.93S
CAMP DOUGLAS   PTSUNNY   72  68  88 NW10G20   29.93S
$$

WIZ011>013-019>022-031-037>040-048>050-131700-
NORTHEAST WISCONSIN

CITY           SKY/WX    TMP DP  RH WIND       PRES   REMARKS
ANTIGO         MOSUNNY   66  54  65 NW10G17   29.91R
STURGEON BAY   SUNNY     73  59  60 W13       29.85S
GREEN BAY      PTSUNNY   75  62  64 W16       29.87R
MANITOWOC      MOSUNNY   74  65  73 W13       29.87S
APPLETON       PTSUNNY  N/A N/A N/A W15       29.89S
CLINTONVILLE   MOSUNNY   73  52  46 NW10      29.88S
OSHKOSH        PTSUNNY   74  65  73 W12G18    29.88F
$$

WIZ032>034-041-042-053>061-131700-
SOUTHWEST WISCONSIN

CITY           SKY/WX    TMP DP  RH WIND       PRES   REMARKS
LA CROSSE      SUNNY     76  64  66 NW9       29.93F
SPARTA         MOSUNNY   73  60  64 NW12G20   29.94S
VIROQUA        PTSUNNY   72  67  82 W10       29.97S
BOSCOBEL       MOSUNNY   79  67  66 W10       29.94F HX  81
PRAIRIE DU CHI MOSUNNY   77  65  67 W9        29.95S
PLATTEVILLE    FAIR      75  69  80 W10       29.98S
$$

WIZ056-057-062-063-064-067-068-131700-
SOUTH CENTRAL WISCONSIN

CITY           SKY/WX    TMP DP  RH WIND       PRES   REMARKS
BARABOO/DELLS  CLOUDY    73  64  73 NW7G16    29.93S
LONE ROCK      PTSUNNY   79  67  66 W13       29.94S HX  81
WATERTOWN      SUNNY     76  65  70 W8        29.91F
MADISON        MOSUNNY   78  64  61 W9        29.93S HX  80
MIDDLETON      FAIR      79  66  64 W13       29.94S HX  81
MONROE         SUNNY     73  64  73 SW12      29.96S
JANESVILLE     SUNNY     75  64  69 W10       29.94F
$$

WIZ051-052-058>065-066-070>072-131700-
SOUTHEAST WISCONSIN

CITY           SKY/WX    TMP DP  RH WIND       PRES   REMARKS
MILWAUKEE      MOSUNNY   78  61  55 W10       29.91S HX  80
WAUKESHA       SUNNY     73  63  68 W12       29.93S
MILWAUKEE/TIMM SUNNY     75  61  60 W9        29.91F
RACINE         SUNNY     76  64  66 W12       29.93S
BURLINGTON     SUNNY     73  64  74 W10       29.94R
KENOSHA        SUNNY     75  67  76 W8        29.93S
FOND DU LAC    PTSUNNY   73  64  73 W16       29.90S
SHEBOYGAN      SUNNY     75  64  68 W13       29.87F
WEST BEND      SUNNY     75  61  60 W8        29.90F
JUNEAU         MOSUNNY   75  48  38 W10G21    29.92S
$$

LSZ147-162-131700-
LAKE SUPERIOR

STATION/POSITION TIME  TEMP    WIND        PRES    WAVE
                       AIR SEA DIR/SP/G            HT/PER
                 (UTC) (F)     (DEG/KT/KT) (MB)    (FT/S)
W MID LAKE BUOY  1550   46 38  240/ 16/ 16 1010.9F   2/ 3
PORT WING        1500   62     240/  9/ 12 1012.9F
SAXON HARBOR     1500          300/  4/  7 1012.9F
$$

LMZ867-665-643>646-131700-
LAKE MICHIGAN

STATION/POSITION TIME  TEMP    WIND        PRES    WAVE
                       AIR SEA DIR/SP/G            HT/PER
                 (UTC) (F)     (DEG/KT/KT) (MB)    (FT/S)
N MID LAKE BUOY  1550   62 59  270/  8/ 10 1009.4R   2/ 3
NORTHPORT PIER   1500   69     310/  8/ 15 1009.8R
KEWAUNEE LAKESHO 1600   74     290/ 10/ 15 1011.5S
SHEBOYGAN LAKESH 1600   76     270/ 15/ 17 1011.2F
PORT WASHINGTON  1540   78     270/  9/ 14 1012.5S
MILWAUKEE LAKESH 1600   75     270/ 10/ 13   N/A
S MID LAKE BUOY  1550   65 62  230/ 10/ 10 1013.4R   1/ 4
KENOSHA   LAKESH 1600   74     290/ 10/ 13   N/A
$$

TC  - TEMPERATURE IN CELSIUS
VSB - VISIBILITY IN STATUTE MILES
WCI - WIND CHILL INDEX
HX  - HEAT INDEX




USA.gov is the U.S. government's official web portal to all federal, state and local government web resources and services.